IRIDIUM 33 DEB, 34146

Orbit data source: Space-Track

IRIDIUM 33 DEB, 34146 is space debris in LEO originally from a launch on Sun, 14 Sep 1997 UTC launched from the Tyuratam Missile And Space Complex (TTMTR). The debris from Iridium 33, an American commercial communications satellite, has been tracked extensively since its accidental collision with the defunct Russian satellite Cosmos 2251 in 2009. This event, occurring at high speed in low Earth orbit (LEO), generated thousands of pieces of space debris, significantly increasing the risk of further collisions. The Iridium 33 debris cloud has impacted space traffic management and orbital debris mitigation strategies, making it a subject of ongoing study in space situational awareness.

Loading next visibility...
Identifier
34146, 1997-051DZ
Orbit
LEO
Country
Flag of USUS
Related business
Manufacturer
Unknown
Mission
Spacecraft
Bus & Motor
Unknown
Mass
Unknown
Launch date (UTC)
1997-09-14 (29 years ago)
Launch vehicle
Unknown
Launch site
Tyuratam Missile And Space Complex (TTMTR)
Object type
Payload
Rocket body
Debris
Shape & HBR
Unknown shape, 0.1 m
Radar Cross Section
Medium (>0.1 m² and <1 m²)

Expand to show TLE details & history
Last TLE update: 18 hours ago

TLE from 18 hours ago
0 IRIDIUM 33 DEB
1 34146U 97051DZ  26208.57503655  .00002308  00000-0  58416-3 0  9994
2 34146  86.2793 249.4604 0026181 183.5842 337.8454 14.50344279913931
Epoch: 2026-07-27T13:48Z
TLE epoch observation values (Epoch: 2026-07-27T13:48:03.157Z)
Latitude
18.63737°
Longitude
-84.05937°
Altitude
709.855 km
Speed
7.511 km/s
True Right ascension
04h 32m 50s
True Declination
18° 31' 58"
Sunlit
Object was in daylight at epoch
Visualization orbit readout
Latitude
Unknown
Longitude
Unknown
Altitude
Unknown
Speed
Unknown
Apparent Right ascension
Unknown
Apparent Declination
Unknown
Sunlit
N/A
Visualization observer readout
Local Sidereal Time
20:53:23
Azimuth
Unknown
Elevation
Unknown
Doppler factor
Unknown
Orbital elements
Apogee altitude
740.056 km
Perigee altitude
702.881 km
Semi-major axis
7,099.605 km
Eccentricity
0.00262
Inclination
86.2793°
RAAN
249.4604°
Arg. of periapsis
183.5842°
True anomaly
337.73192°
Mean anomaly
337.8454°
Eccentric anomaly
337.78869°
Mean motion
3.62821 °/min
Orbital period
99.22 mins
BSTAR
0.00058416
Loading maneuver chart data...
Computing Atmospheric mass density...
Loading historical data...
Loading historical data...
Loading historical data...
Loading historical data...
Loading historical data...
Loading historical data...
Loading historical data...

Documentation

Showing up to 5 results
|